Location: Unspecified
(0.0000°N, 0.0000°E)
Time: 11:30:53
(UTC+00:00)

Envisat - Pass Details

Date: 22 March 2019
Orbit: 764 x 766 km, 98.2° (Epoch: 24 March)

Event Time Altitude Azimuth Distance (km) Brightness Sun altitude
Rises 18:25:35 0° 150° (SSE) 3,229 5.9 -4.7°
Reaches altitude 10° 18:28:08 10° 139° (SE) 2,301 5.1 -5.3°
Maximum altitude 18:32:35 31° 78° (ENE) 1,314 3.7 -6.4°
Drops below altitude 10° 18:37:00 10° 17° (NNE) 2,291 5.3 -7.5°
Sets 18:39:31 0° 7° (N) 3,214 6.2 -8.2°
